User: anonymous   Login
Location: Drayton Valley
(53.2170°N, 114.9830°W)
Time: 01:22:02
(UTC-06:00)
Language:

MOZ.5/SAFIR/RUBIN 5/SL-8 - Orbit

View from above orbital plane
View from above orbital plane
View from above satellite
View from above satellite

Ground track
Ground track

The orbit data is extracted from the following two-line orbital elements,

1 28898U 05043G   16126.44972015  .00000126  00000-0  35338-4 0  9990
2 28898  97.8748 289.2883 0020517  33.6992 326.5509 14.60090330560330
Epoch (UTC): 05 May 2016 10:47:35
Eccentricity: 0.0020517
inclination: 97.8748°
perigee height: 678 km
apogee height: 707 km
right ascension of ascending node: 289.2883°
argument of perigee: 33.6992°
revolutions per day: 14.60090330
mean anomaly at epoch: 326.5509°
orbit number at epoch: 56033

The dashed part of the orbit path shows where the satellite is in the earth's shadow,  

DLR